Home   Weather   Bad Kissingen   Past weeks

Flag for Germany Past Weather in Bad Kissingen, Bavaria, Germany — Yesterday and Last 2 Weeks

Now
10 °F

Clear.


Feels Like: 10 °F
Forecast: 6 / 20 °F
Wind: No wind

Location: Illesheim

Current Time: Jan 21, 2017 at 1:35:31 am

Latest Report: Jan 21, 2017 at 12:58 am


Visibility: N/A

Pressure: 30.55 "Hg

Humidity: 85%

Dew Point: 7 °F

Location of Bad KissingenLocation

Past Weather in Bad Kissingen — Graph

°F

Bad Kissingen Temperature Yesterday

Maximum temperature yesterday: 31 °F (at 2:58 pm)
Minimum temperature yesterday: 5 °F (at 7:58 am)
Average temperature yesterday: 15 °F

High & Low Weather Summary for the Past Weeks

 TemperatureHumidityPressure
High41 °F (Jan 13, 2:58 am)100% (Jan 7, 10:29 pm)30.86 "Hg (Jan 7, 10:29 pm)
Low-2 °F (Jan 7, 12:58 am)46% (Jan 20, 2:58 pm)29.29 "Hg (Jan 13, 2:08 am)
Average25 °F87%30.21 "Hg
* Reported Jan 5 11:58 pm — Jan 20 11:58 pm, Bad Kissingen, Weather by CustomWeather, © 2017

Note: Actual official high and low records may vary slightly from our data, if they occured in-between our weather recording intervals... More about our weather records

Advertising

Bad Kissingen Weather History for the Previous 24 Hours

Scroll right to see more
 ConditionsComfort  
Time TempWeatherWind HumidityBarometerVisibility
11:58 pm
Fri, Jan 20
12 °FClear.No wind80%30.56 "HgN/A
10:58 pm12 °FClear.No wind79%30.57 "HgN/A
9:58 pm11 °FClear.No wind77%30.59 "HgN/A
8:58 pm12 °FClear.No wind78%30.59 "HgN/A
7:58 pm14 °FClear.No wind73%30.58 "HgN/A
6:58 pm16 °FClear.No wind73%30.58 "HgN/A
5:58 pm17 °FClear.No wind72%30.57 "HgN/A
4:58 pm21 °FClear.No wind64%30.57 "HgN/A
3:58 pm29 °FSunny.No wind59%30.57 "HgN/A
2:58 pm31 °FSunny.No wind46%30.56 "HgN/A
1:58 pm29 °FSunny.No wind51%30.58 "HgN/A
12:58 pm26 °FSunny.No wind54%30.60 "HgN/A
11:58 am23 °FSunny.No wind63%30.61 "HgN/A
10:58 am18 °FSunny.No wind70%30.64 "HgN/A
9:58 am12 °FSunny.No wind83%30.65 "HgN/A
8:58 am7 °FSunny.No wind85%30.66 "HgN/A
7:58 am5 °FClear.No wind92%30.65 "HgN/A
6:58 am7 °FClear.No wind85%30.64 "HgN/A
5:58 am7 °FClear.No wind85%30.63 "HgN/A
4:58 am7 °FClear.No wind86%30.63 "HgN/A
3:58 am8 °FClear.No wind85%30.62 "HgN/A
2:58 am8 °FClear.No wind83%30.63 "HgN/A
1:58 am9 °FClear.No wind84%30.63 "HgN/A
Weather by CustomWeather, © 2017

See weather overviewHow to use our weather pages